Flag for U.S.A. Weather past 2 weeks in Elizabeth, New Jersey, U.S.A.

Now
37 °F

Clear.


Feels Like: 30 °F
Forecast: 35 / 59 °F
Wind: 9 mph from Southwest

Location: Newark International Airport

Current Time: Apr 25, 2015 at 4:48:30 AM

Latest Report: Apr 25, 2015 at 3:51 AM


Visibility: 10 mi

Pressure: 29.92 "Hg

Humidity: 54%

Dew point: 22 °F

Location of ElizabethLocation

Historic Weather in Elizabeth — Graph

°F

Elizabeth temperature yesterday

Maximum temperature yesterday: 54 °F (at 2:51 PM)
Minimum temperature yesterday: 39 °F (at 3:51 AM)
Average temperature yesterday: 44 °F

Past Weeks' High & Low Weather Summary

 TemperatureHumidityPressure
High81 °F (Apr 18, 5:51 PM)100% (Apr 20, 10:51 PM)30.48 "Hg (Apr 20, 10:51 PM)
Low37 °F (Apr 25, 3:51 AM)10% (Apr 15, 5:51 PM)29.52 "Hg (Apr 22, 2:51 PM)
Average56 °F52%30.00 "Hg
* Reported Apr 10 3:51 AM — Apr 25 3:51 AM, Elizabeth, Weather by CustomWeather, © 2015

Note: Actual official high and low records may vary slightly from our data, if they occured in-between our weather recording intervals... More about our weather records

Advertising

Elizabeth weather history for previous 24 hours

 ConditionsComfort  
Time TempWeatherWind HumidityBarometerVisibility
3:51 AM
Sat, Apr 25
37 °FClear.9 mph54%29.92 "Hg10 mi
2:51 AM38 °FClear.6 mph53%29.91 "Hg10 mi
1:51 AM39 °FClear.7 mph48%29.93 "Hg10 mi
12:51 AM40 °FClear.10 mph47%29.94 "Hg10 mi
11:51 PM
Fri, Apr 24
40 °FClear.15 mph47%29.94 "Hg10 mi
10:51 PM41 °FClear.17 mph45%29.93 "Hg10 mi
9:51 PM42 °FPassing clouds.14 mph43%29.93 "Hg10 mi
8:51 PM44 °FPassing clouds.17 mph37%29.92 "Hg10 mi
7:51 PM45 °FScattered clouds.15 mph35%29.90 "Hg10 mi
6:51 PM48 °FPassing clouds.22 mph30%29.87 "Hg10 mi
5:51 PM51 °FPassing clouds.23 mph27%29.86 "Hg10 mi
4:51 PM52 °FPassing clouds.17 mph25%29.83 "Hg10 mi
3:51 PM54 °FScattered clouds.21 mph22%29.82 "Hg10 mi
2:51 PM54 °FPartly sunny.17 mph23%29.82 "Hg10 mi
1:51 PM51 °FPartly sunny.15 mph25%29.84 "Hg10 mi
12:51 PM48 °FPartly sunny.20 mph29%29.86 "Hg10 mi
11:51 AM47 °FPartly sunny.13 mph33%29.87 "Hg10 mi
10:51 AM45 °FPartly sunny.21 mph33%29.87 "Hg10 mi
9:51 AM45 °FPartly sunny.16 mph33%29.88 "Hg10 mi
8:51 AM42 °FPartly sunny.17 mph39%29.89 "Hg10 mi
7:51 AM39 °FPartly sunny.21 mph48%29.90 "Hg10 mi
6:51 AM39 °FPassing clouds.16 mph48%29.89 "Hg10 mi
5:51 AM39 °FOvercast.16 mph46%29.87 "Hg10 mi
4:51 AM39 °FOvercast.18 mph45%29.87 "Hg10 mi
Weather by CustomWeather, © 2015

See weather overviewHow to use our weather pages